Volver al catálogo

STARLINK-11079

ActivoComunicacionesVLEO
NORAD 58708·PAYLOAD·🇺🇸 United States

Lanzado Jan 3, 2024 desde Vandenberg Space Force Base

Loading…

Próximos Pases (próximas 24 horas)

TLE

ActualizadoSource: CelesTrak SupGP

Época: Sep 14, 2026, 21:43 UTC

1 58708C 24002D   26257.90534722  .00087882  00000+0  72398-3 0  2571
2 58708  53.1571  61.1923 0001030  74.5050  34.1948 15.69663458    12

Sigue STARLINK-11079 en tiempo real con AllMySat

Download on the App Store